Location: Bradley
(41.1420°N, 87.8610°W)
Time: 22:38:23
(UTC-05:00)

Hubble Space Telescope - Visible Passes

Search period start: 20 October 2018 00:00
Search period end: 30 October 2018 00:00
Orbit: 537 x 541 km, 28.5° (Epoch: 20 October)

Date Brightness Start Highest point End Pass type
(mag) Time Alt. Az. Time Alt. Az. Time Alt. Az.
20 Oct 3.0 05:35:54 13° SSW 05:37:04 14° S 05:39:14 10° SSE visible
21 Oct 3.0 05:26:10 13° S 05:26:32 14° S 05:28:37 10° SSE visible
22 Oct 3.1 05:16:26 13° S 05:16:26 13° S 05:17:54 10° SSE visible
23 Oct 3.4 05:06:43 11° S 05:06:43 11° S 05:07:04 10° SSE visible
